星链-5226 (STARLINK-5226 )

导读 | 豆包AI

STARLINK-5226是美国太空探索技术公司Starlink卫星互联网项目的卫星,于2022年10月20日发射升空,归属美国,属于低轨通信卫星,承担卫星互联网组网服务,为全球多地提供高速宽带互联网接入服务,是星链星座大规模组网部署中的组成单元,支撑星链星座服务能力的扩展。

Basic Information
目录编号:
54056
目录名称:
STARLINK-5226
国际标识:
2022-136F
轨道中心:
EARTH
卫星名称:
星链-5226
卫星全名:
星链-5226 (STARLINK-5226 )
卫星状态:
在轨 (已飞行1288 天)
发射日期:
2022-10-20 UTC
国别 :
美国 (US)
星等 :
--
Orbit Information
数据来源 国际轨道数据 AOE轨道数据
星历时间 2026-04-30T13:58:31+0800
10小时前
查看轨道信息
2026-04-30T21:00:00+0800
3小时前
查看轨道信息
半长轴 6917.916km 6917.849km
偏心率 0.0001357 0.0001467
轨道倾角 53.217° 53.214°
近地点辐角 82.760° 63.445°
升交点赤经 112.249° 110.936°
平近点角 277.355° 87.438°
近地点 538.84km 538.697km
远地点 540.718km 540.727km
周期 95.438分钟 95.437分钟
每日圈数 15.088285 15.088503
Detailed Information
固有亮度:
5
最大亮度:
2.5
卫星平台:
Starlink v1.5
覆盖范围:
全球
运营商:
太空探索技术公司
运营商所在国:
美国
制造商(研发单位):
太空探索技术公司
制造商所在国:
美国
使用方式:
暂无
Satellite Introduction
星链(Starlink)计划是由太空探索技术公司(SpaceX)提出的一个巨型低轨卫星互联网星座项目,计划在2019年至2024年间在太空搭建由约1.2万颗卫星组成的“星链”网络,其中1584颗将部署在地球上空550千米处的近地轨道,并从2020年开始工作。该卫星仍在工作。
2D Orbit Map
3D Orbit Map
Orbit Altitude Analysis Chart
Orbit Inclination Analysis Chart
Orbit Comprehensive Analysis Chart
View Comprehensive Chart